INTELSAT 602 1 20315U 89087A 10064.40307425 +.00000020 +00000-0 +10000-3 0 00198 2 20315 007.5309 062.8511 0001686 307.9327 115.1646 01.00273092072346 LEASAT 5 1 20410U 90002B 10066.79583178 -.00000297 +00000-0 +10000-3 0 02670 2 20410 008.7728 033.8007 0002803 002.0110 152.6287 01.00243768059083 INTELSAT 603 1 20523U 90021A 10064.78838580 -.00000171 +00000-0 +10000-3 0 05756 2 20523 007.0148 064.4365 0003313 309.8107 052.9782 01.00270040066100 INTELSAT 604 1 20667U 90056A 10065.60111623 -.00000029 +00000-0 +10000-3 0 08369 2 20667 007.3157 065.0085 0007671 206.7297 153.3444 00.98433445074717 INTELSAT 605 1 21653U 91055A 10066.15413807 +.00000045 +00000-0 +00000-0 0 08807 2 21653 005.0889 070.0295 0004198 212.9628 147.1946 00.99325231067913 INTELSAT 601 1 21765U 91075A 10064.83751839 +.00000110 +00000-0 +10000-3 0 09130 2 21765 005.1237 069.0336 0000340 258.2955 185.1178 01.00274250067040 NSS K (INTELSAT K) 1 21989U 92032A 10063.90917493 -.00000105 +00000-0 +10000-3 0 03778 2 21989 007.1571 066.4453 0092349 206.6344 153.0238 00.97179291074684 INTELSAT 701 1 22871U 93066A 10065.46027689 +.00000038 +00000-0 +10000-3 0 04820 2 22871 000.0044 173.6014 0003039 175.6902 160.4546 01.00273323059839 INTELSAT 702 1 23124U 94034A 10064.63187553 -.00000017 +00000-0 +00000-0 0 03411 2 23124 000.0167 156.2138 0002727 198.9587 101.5299 01.00272546071742 NSS 703 (INTELSAT 703) 1 23305U 94064A 10067.66821392 +.00000057 +00000-0 +10000-3 0 01153 2 23305 000.5440 080.1978 0005021 280.3859 103.0146 01.00272742056588 INTELSAT 704 1 23461U 95001A 10067.48871365 -.00000072 +00000-0 +10000-3 0 00701 2 23461 000.7829 076.9963 0003415 167.3685 115.5707 00.99182640055525 INTELSAT 705 1 23528U 95013A 10067.08333333 -.00000291 +00000-0 +00000-0 0 09777 2 23528 000.3190 080.5899 0004258 259.7215 167.0381 01.00360932054722 INTELSAT 706 1 23571U 95023A 10063.04954296 .00000071 00000-0 00000+0 0 657 2 23571 000.0217 053.3654 0003200 290.3823 250.6185 01.00273210 54178 INTELSAT 707 1 23816U 96015A 10063.41576118 -.00000300 00000-0 10000-3 0 9644 2 23816 000.0125 077.8613 0004302 253.2937 287.5585 01.00270136 51187 INTELSAT 709 1 23915U 96035A 10067.70520345 -.00000033 +00000-0 +10000-3 0 00849 2 23915 000.0417 091.7088 0005191 197.2529 202.9948 01.00093290050315 INTELSAT 801 1 24742U 97009A 10067.00000000 -.00000225 +00000-0 +10000-3 0 07181 2 24742 001.3920 079.7350 0000001 243.2680 173.0310 01.00298770047722 INTELSAT 802 1 24846U 97031A 10066.72962424 +.00000140 +00000-0 +10000-3 0 09677 2 24846 000.0324 007.3952 0002463 327.0228 126.4636 01.00273272046563 NSS 5 (INTELSAT 803) 1 24957U 97053A 10066.10923955 -.00000170 +00000-0 +10000-3 0 09496 2 24957 000.0397 242.0908 0003192 099.5593 202.2961 01.00271429045612 INTELSAT 804 1 25110U 97083A 10067.59605462 +.00000113 +00000-0 +10000-3 0 07220 2 25110 004.7556 069.7988 0007288 249.0884 111.0373 01.00158990044822 NSS 806 (INTELSAT 806) 1 25239U 98014A 10066.03638240 -.00000276 +00000-0 +00000-0 0 05084 2 25239 000.0353 239.0294 0009224 359.2277 259.0823 01.00271694044103 INTELSAT 805 1 25371U 98037A 10065.33676318 -.00000300 +00000-0 +10000-3 0 04661 2 25371 000.0508 256.3807 0003224 103.8936 229.3910 01.00272247042934 INTELSAT 901 1 26824U 01024A 10064.12458505 -.00000156 00000-0 10000-3 0 5241 2 26824 000.0178 319.6395 0002956 049.4745 180.4710 01.00272161 32030 INTELSAT 902 1 26900U 01039A 10067.79412292 +.00000017 +00000-0 +00000-0 0 05297 2 26900 000.0119 167.1535 0003122 179.0879 167.9900 01.00272981031249 INTELSAT 904 1 27380U 02007A 10065.59938301 +.00000034 +00000-0 +00000-0 0 05453 2 27380 000.0230 070.5763 0003339 291.1139 078.2583 01.00272331029473 INTELSAT 903 1 27403U 02016A 10064.04361072 -.00000253 +00000-0 +00000-0 0 03107 2 27403 000.0068 218.9391 0002878 098.4977 186.4141 01.00273342029114 INTELSAT 905 1 27438U 02027A 10065.11248512 -.00000199 +00000-0 +10000-3 0 01313 2 27438 000.0241 242.1775 0002915 083.8288 213.7011 01.00270367028444 INTELSAT 906 1 27513U 02041A 10065.59349507 -.00000000 +00000-0 +10000-3 0 03134 2 27513 000.0182 088.8624 0002710 268.4733 084.6422 01.00271626027505 INTELSAT 907 1 27683U 03007A 10064.04379292 -.00000217 +00000-0 +10000-3 0 08683 2 27683 000.0257 121.7642 0002257 228.2429 160.8972 01.00270035025840 INTELSAT 1002 1 28358U 04022A 10066.10970691 -.00000026 +00000-0 +10000-3 0 08194 2 28358 000.0149 143.2405 0000930 153.3146 266.6711 01.00271889021004 GALAXY 28 (IA 8) 1 28702U 05022A 10066.10745723 -.00000200 +00000-0 +10000-3 0 07838 2 28702 000.0327 097.2881 0001322 292.6155 084.4430 01.00270683017273 GALAXY 14 1 28790U 05030A 10062.53124731 .00000021 00000-0 10000-3 0 8793 2 28790 000.0506 295.1636 0002358 038.1525 254.1028 01.00272375 16650 GALAXY 15 1 28884U 05041A 10066.45780326 +.00000064 +00000-0 +10000-3 0 07776 2 28884 000.0378 286.5021 0002618 068.5499 201.7849 01.00272908016122 GALAXY 16 1 29236U 06023A 10066.14615558 -.00000142 +00000-0 +10000-3 0 06765 2 29236 000.0242 151.3790 0003169 188.9147 138.0445 01.00271211013649 GALAXY 17 1 31307U 07016B 10061.35448751 -.00000190 00000-0 10000-3 0 4555 2 31307 000.0211 214.3069 0003155 134.2072 208.1147 01.00272334 10408 INTELSAT 11 (PAS 11) 1 32253U 07044B 10063.04711109 -.00000284 00000-0 00000+0 0 3384 2 32253 000.0126 176.9879 0004522 150.2317 168.4142 01.00271464 8879 HORIZONS 2 1 32388U 07063B 10066.12513769 -.00000267 +00000-0 +10000-3 0 03441 2 32388 000.0312 241.8415 0001873 106.5476 147.3082 01.00270956008255 GALAXY 18 1 32951U 08024A 10062.29930395 .00000010 00000-0 10000-3 0 2766 2 32951 000.0160 194.8335 0002970 155.8872 154.9397 01.00270512 6558